Location: Lafig�re
(44.4503°N, 4.0357°E)
Time: 17:11:16
(UTC+00:00)

deb Explorer IX - Pass Details

Date: 23 January 2021
Orbit: 537 x 1102 km, 38.8° (Epoch: 04 March)

Event Time Altitude Azimuth Distance (km) Brightness Sun altitude
Rises 16:42:45 0° 215° (SW) 3,756 ? -1.1°
Reaches altitude 10° 16:46:10 10° 201° (SSW) 2,723 ? -1.7°
Maximum altitude 16:51:00 22° 154° (SSE) 1,863 ? -2.5°
Drops below altitude 10° 16:55:23 10° 105° (ESE) 2,436 ? -3.2°
Enters shadow 16:57:55 - 91° (E) 3,162 ? -3.6°
Sets 16:58:14 0° 90° (E) 3,264 - -3.6°
